Temperature
14 14 14 14 14 14 14 14 13 13 12 12 12 12 12 12 12 12 12 12 12 12 12 12 12 12 12 11 11 11 11 11 11 11 11 11 11 10
14 14 14 14 14 13 13 13 13 13 12 12 12 12 12 12 12 12 12 12 12 12 12 12 12 12 11 11 11 11 11 11 11 11 11 11 11 10
14 14 14 14 13 13 13 13 13 13 13 12 12 12 12 12 12 12 12 12 12 12 12 12 11 11 11 11 11 11 11 11 11 11 11 11 10 10
13 13 13 13 13 13 13 13 13 13 13 12 12 12 11 11 11 11 11 11 12 11 11 11 11 11 11 11 11 11 11 11 11 11 10 10 10 10
13 13 13 13 13 13 13 13 13 13 12 12 12 12 11 11 11 11 11 11 11 11 11 11 11 11 11 11 11 11 10 10 10 10 10 10 10 10
13 13 13 13 13 13 13 13 13 12 12 12 12 12 11 11 11 11 11 11 11 11 11 11 11 11 11 11 11 10 10 10 10 10 10 10 10 10
13 13 13 13 13 13 13 13 12 12 12 12 11 11 11 11 11 11 11 11 10 10 11 11 11 11 11 11 11 10 10 10 10 10 10 10 10 9
13 13 13 13 13 13 13 12 12 12 12 12 11 11 11 11 11 11 11 10 10 10 10 10 10 11 11 11 10 10 10 10 10 10 10 10 10 10
12 12 12 12 12 12 12 12 12 12 12 12 11 11 11 11 11 11 11 11 11 11 10 10 10 10 10 10 10 10 10 10 10 10 10 10 9 9
11 12 12 12 12 12 12 12 12 12 11 11 11 11 11 11 11 11 11 11 10 10 10 10 10 10 10 10 10 10 10 10 10 10 9 9 9 9
11 11 11 11 11 11 11 11 11 11 11 11 11 11 11 11 11 11 10 10 10 10 10 10 10 10 10 10 10 10 10 10 10 10 9 9 9 9
10 10 10 11 11 11 11 11 11 11 11 11 11 11 11 11 11 10 10 10 10 10 10 10 10 9 9 9 10 10 10 10 10 9 9 9 9 9
10 10 10 10 10 10 10 10 10 10 10 10 11 11 11 10 10 10 10 10 10 10 10 10 10 9 9 9 9 9 9 9 9 9 9 9 9 9
9 10 10 9 9 10 10 10 10 10 10 10 10 10 10 10 10 10 10 10 10 10 10 10 10 10 9 9 9 9 9 9 9 9 9 9 9 9
9 9 9 9 9 9 9 9 9 9 9 9 10 10 10 10 10 10 9 10 10 9 9 9 9 9 9 9 9 9 9 9 9 9 9 9 9 9
9 9 9 9 9 9 9 9 9 9 9 9 9 9 9 9 9 9 9 9 9 9 9 9 9 9 9 9 9 9 9 9 9 9 8 8 8 8
8 8 8 8 8 8 8 8 8 8 8 8 8 8 9 9 9 9 8 8 9 9 9 9 9 9 9 8 8 8 8 8 8 8 8 8 8 8
8 8 8 8 8 8 8 8 8 8 8 8 8 8 8 8 8 8 8 8 8 8 8 8 8 8 8 8 8 8 8 8 8 8 8 8 8 8
7 7 7 7 7 7 7 7 7 8 8 8 8 8 8 8 8 8 8 8 8 8 8 8 8 7 7 7 8 8 8 8 8 8 7 7 8 8
7 7 7 7 7 7 7 7 7 7 7 7 7 7 7 7 7 7 7 7 7 7 7 7 7 7 8 8 7 7 8 7 7 7 7 7 7 7
7 7 7 7 7 7 7 7 7 7 7 7 7 7 7 7 7 7 7 7 7 7 7 7 7 7 7 7 7 7 7 7 7 7 7 7 6 6
6 6 6 6 6 6 6 6 6 7 6 6 6 6 6 6 6 7 6 6 7 7 7 7 7 6 6 6 6 7 7 7 6 6 6 6 6 6
6 6 6 6 6 6 6 6 6 6 6 6 6 6 6 6 6 6 6 6 6 6 6 6 6 6 6 6 6 6 6 6 6 6 6 6 6 6
Wind_Speed
1 2 1 1 1 1 2 3 3 2 1 2 2 3 8 10 10 9 9 8 8 8 9 9 10 9 9 9 8 8 8 8 8 8 8 9 9 9
1 1 1 1 1 2 2 2 2 3 2 2 2 3 6 8 8 9 9 9 7 7 8 8 8 9 9 9 9 8 8 7 7 7 8 8 8 9
2 2 2 2 2 2 2 2 2 3 3 2 2 4 5 5 7 9 9 8 7 6 6 7 7 7 7 7 7 7 7 7 6 6 6 7 7 7
3 3 2 2 3 2 2 2 2 3 4 4 3 3 4 6 6 6 8 7 8 7 6 6 5 5 5 5 5 5 6 6 5 5 6 6 6 6
3 3 3 2 3 3 3 3 2 2 3 4 4 3 3 4 4 4 5 6 7 7 7 6 5 5 4 3 3 4 4 4 4 5 5 5 5 5
3 3 3 3 3 3 4 4 3 3 3 4 4 3 3 3 4 3 3 2 3 6 7 7 6 5 4 3 3 3 3 3 3 3 3 4 3 3
2 2 2 3 3 2 2 3 4 4 3 3 4 3 3 4 4 4 4 3 2 4 3 5 7 6 6 6 5 5 5 4 3 2 2 2 2 2
2 2 1 2 3 2 3 3 4 5 5 4 4 5 5 5 4 4 3 3 2 3 4 4 6 4 8 9 8 8 8 7 5 4 3 2 2 1
2 1 2 1 3 2 3 3 4 5 5 5 5 6 6 6 6 5 5 5 4 4 4 3 4 4 8 10 11 11 10 9 8 6 5 4 3 3
2 2 2 1 1 2 2 2 4 5 6 5 4 5 5 6 8 8 6 4 2 3 4 3 3 4 5 9 11 12 12 11 10 9 7 6 6 5
3 2 2 2 2 3 2 2 2 3 5 5 5 4 4 5 7 4 4 4 2 3 3 3 3 2 3 3 9 12 13 12 11 10 9 8 8 7
3 3 3 3 2 3 3 3 3 3 3 3 3 2 3 4 6 6 6 5 3 3 4 4 2 2 1 2 5 9 11 12 12 12 11 9 8 7
2 2 2 3 3 3 3 3 4 3 2 3 3 3 2 3 4 5 5 5 5 3 5 5 3 3 3 2 2 5 8 7 9 10 11 11 10 9
3 2 2 3 4 3 3 3 3 2 1 2 3 3 3 3 4 5 6 6 6 5 7 7 3 4 3 2 2 2 4 7 8 7 9 10 12 12
2 3 3 3 3 3 4 4 2 2 2 2 4 4 4 3 3 3 4 4 4 5 7 7 4 4 4 3 3 2 2 4 6 5 6 7 7 7
3 3 3 3 2 3 3 3 3 3 3 3 3 4 3 3 3 3 3 3 2 3 4 7 7 5 4 4 3 3 3 3 3 4 4 5 7 9
3 2 1 2 2 3 3 3 3 3 4 3 3 3 3 4 3 3 3 2 3 4 4 3 5 5 4 4 4 4 4 4 3 4 4 4 5 8
3 3 4 4 5 4 4 4 4 4 4 4 4 4 4 5 4 3 3 4 4 4 4 3 3 1 1 2 5 5 4 5 4 4 4 5 6 6
4 4 4 4 5 4 4 4 5 5 4 4 4 5 5 5 4 4 5 4 5 5 4 4 4 5 5 5 4 8 6 5 4 4 5 5 6 6
4 4 5 4 4 4 4 4 4 4 4 5 5 5 5 5 5 5 5 6 6 6 5 5 6 7 8 7 4 4 9 5 4 5 5 4 4 6
5 5 5 5 5 5 5 5 5 5 5 4 5 5 5 5 5 6 6 7 7 6 7 7 8 8 4 1 2 3 3 9 8 5 5 4 3 3
5 5 5 5 5 5 5 5 5 5 5 5 5 5 5 5 6 6 6 6 6 7 7 4 3 4 4 6 7 6 4 3 6 8 7 6 4 5
5 5 5 5 5 5 5 5 6 6 5 5 5 5 5 5 6 6 6 6 6 6 5 4 3 4 5 6 6 5 4 4 3 3 4 8 10 9
Wind_Direction
209 212 202 212 200 178 146 144 148 153 172 159 133 135 126 126 133 127 120 110 99 91 86 83 79 78 76 71 68 68 69 69 69 65 65 65 64 67
206 214 223 209 185 162 169 178 160 155 160 161 152 153 140 137 144 137 137 128 115 106 97 95 90 86 80 74 71 71 71 72 70 67 67 69 67 66
220 199 217 200 171 185 193 184 170 145 150 151 132 146 140 142 143 147 144 141 138 133 119 111 104 97 89 83 78 74 71 71 71 69 71 74 70 67
222 212 214 204 190 188 183 185 179 160 152 157 156 159 164 157 156 160 157 155 151 154 146 133 125 117 108 98 90 82 76 72 72 74 71 75 75 71
217 214 212 193 207 193 180 186 187 164 147 154 165 164 158 155 150 165 156 153 158 162 161 157 155 149 140 128 115 100 91 84 79 79 75 71 80 78
231 217 208 191 195 192 183 186 171 154 149 150 155 162 165 165 158 169 173 179 169 162 168 175 178 178 177 173 171 157 138 121 107 101 87 74 84 89
247 231 213 179 166 166 179 177 167 165 168 165 165 170 179 176 187 184 184 180 184 173 167 183 183 189 199 204 207 199 183 174 165 149 134 118 92 100
269 252 219 167 156 152 159 168 175 182 185 183 184 185 197 196 190 188 179 169 214 199 169 196 181 194 202 202 209 206 202 198 196 192 183 179 184 163
270 256 263 221 160 172 188 192 204 207 194 186 190 197 195 195 187 194 196 193 206 193 166 207 195 204 206 208 207 206 206 207 208 210 212 214 219 226
266 247 248 236 181 154 178 207 222 215 209 209 207 207 204 191 190 195 194 193 190 176 156 194 205 210 208 201 204 205 208 210 212 215 219 226 231 240
267 255 240 224 211 176 183 218 248 251 230 214 206 202 195 184 179 166 169 170 199 207 181 176 202 204 208 201 205 208 209 210 213 217 221 229 235 240
264 262 248 237 229 198 196 201 229 251 233 217 209 204 187 188 187 183 181 183 189 204 194 177 191 161 228 225 197 203 209 216 220 221 222 227 231 230
246 255 255 235 223 215 216 214 229 246 225 203 201 200 197 200 201 200 192 186 194 214 192 173 187 179 189 223 213 205 200 211 219 225 228 229 228 220
244 242 237 229 220 214 224 251 253 231 218 208 201 207 208 213 216 214 216 211 211 206 190 175 180 182 183 204 231 213 208 210 207 213 220 229 231 230
247 246 235 235 225 215 228 241 244 208 206 216 215 216 212 213 208 208 216 217 228 217 196 187 178 181 182 200 208 204 212 226 211 209 213 213 217 222
247 246 234 225 230 234 234 232 220 216 211 220 226 217 203 198 205 205 211 202 216 240 224 206 197 184 200 210 204 218 208 210 213 212 213 221 222 219
212 201 210 209 218 230 228 222 222 224 229 224 223 216 208 202 205 199 200 204 218 222 225 220 209 208 201 196 213 220 218 226 221 208 210 228 232 227
214 210 213 213 216 221 224 222 217 219 223 220 219 220 215 211 211 208 203 207 222 220 216 201 174 160 302 270 224 222 224 227 223 210 210 223 242 239
215 223 220 217 218 222 222 224 226 224 217 214 219 221 217 214 211 211 211 217 228 223 217 199 190 189 207 239 249 220 217 227 216 214 216 221 237 242
223 224 228 227 225 224 224 227 229 226 222 219 218 218 213 212 216 215 214 220 226 222 221 212 206 207 216 226 232 240 218 214 215 221 225 231 248 258
231 231 230 230 229 227 228 226 224 225 226 220 218 216 213 211 218 221 221 225 223 220 222 226 225 212 211 202 243 258 245 224 222 220 213 217 240 250
235 233 233 233 232 231 227 223 225 225 224 223 221 219 216 213 219 221 222 224 224 223 230 236 217 198 200 218 235 241 244 248 246 246 237 222 205 220
235 234 233 235 235 233 228 224 225 226 224 223 222 222 218 219 222 220 222 228 226 221 221 225 223 213 216 218 230 240 240 231 227 244 261 260 252 251
Height
1541 1542 1543 1543 1544 1545 1546 1547 1548 1549 1550 1551 1552 1552 1552 1552 1553 1553 1553 1553 1552 1552 1552 1551 1550 1550 1549 1549 1548 1548 1547 1546 1546 1545 1544 1543 1541 1540
1540 1540 1541 1542 1543 1543 1544 1546 1546 1547 1548 1549 1550 1551 1551 1552 1552 1552 1552 1552 1552 1552 1551 1551 1550 1550 1550 1549 1549 1548 1547 1547 1546 1545 1544 1543 1542 1541
1538 1538 1539 1540 1541 1542 1543 1544 1544 1545 1546 1547 1548 1549 1550 1551 1551 1551 1552 1552 1552 1551 1551 1551 1550 1550 1549 1549 1548 1548 1547 1547 1546 1545 1544 1544 1543 1542
1536 1536 1537 1538 1539 1540 1541 1542 1542 1543 1544 1545 1546 1547 1548 1549 1550 1550 1550 1551 1551 1551 1551 1550 1550 1550 1549 1549 1548 1548 1547 1546 1546 1545 1544 1543 1543 1542
1533 1534 1535 1536 1537 1537 1538 1539 1540 1541 1542 1543 1544 1545 1546 1547 1548 1549 1549 1549 1549 1550 1550 1550 1549 1549 1549 1548 1548 1547 1547 1546 1546 1545 1544 1543 1543 1542
1531 1531 1532 1533 1534 1535 1536 1536 1538 1539 1540 1541 1542 1543 1544 1545 1546 1547 1547 1548 1548 1548 1548 1548 1548 1548 1548 1547 1547 1547 1546 1545 1545 1544 1544 1543 1543 1542
1527 1528 1529 1530 1531 1532 1533 1534 1535 1536 1537 1538 1539 1540 1541 1542 1543 1544 1545 1545 1546 1546 1546 1547 1547 1547 1546 1546 1546 1546 1545 1544 1544 1543 1543 1542 1542 1541
1524 1525 1526 1527 1528 1529 1530 1531 1532 1533 1534 1535 1536 1537 1538 1539 1541 1541 1542 1542 1543 1544 1544 1545 1545 1544 1545 1545 1545 1545 1544 1544 1543 1542 1542 1541 1541 1540
1520 1521 1522 1524 1524 1525 1526 1527 1529 1530 1531 1532 1533 1533 1535 1536 1537 1538 1539 1539 1540 1541 1542 1542 1542 1542 1542 1543 1543 1543 1543 1542 1542 1541 1541 1540 1540 1539
1517 1518 1519 1520 1521 1522 1523 1523 1525 1526 1527 1528 1530 1531 1532 1533 1534 1535 1536 1537 1538 1539 1539 1539 1539 1539 1540 1540 1540 1540 1540 1540 1540 1540 1539 1539 1538 1538
1513 1514 1514 1515 1517 1518 1519 1519 1520 1521 1523 1524 1526 1527 1528 1529 1530 1531 1532 1533 1533 1534 1535 1536 1536 1536 1537 1537 1538 1538 1538 1538 1538 1537 1537 1537 1536 1536
1509 1509 1510 1511 1512 1513 1514 1515 1515 1517 1518 1519 1520 1522 1523 1524 1526 1527 1528 1529 1529 1530 1531 1532 1533 1533 1533 1534 1534 1534 1535 1535 1535 1535 1535 1534 1534 1533
1504 1505 1506 1507 1508 1509 1509 1510 1511 1513 1514 1514 1515 1517 1518 1519 1521 1522 1524 1525 1525 1526 1527 1528 1529 1530 1530 1530 1530 1531 1531 1531 1531 1531 1531 1531 1531 1530
1500 1501 1501 1502 1503 1504 1505 1506 1507 1508 1509 1510 1511 1512 1513 1514 1516 1517 1519 1520 1521 1522 1523 1524 1525 1525 1526 1526 1526 1526 1527 1527 1528 1528 1528 1528 1527 1527
1496 1497 1497 1498 1499 1499 1500 1501 1502 1503 1504 1505 1506 1507 1508 1510 1511 1513 1514 1515 1517 1518 1519 1520 1520 1521 1522 1522 1522 1522 1522 1523 1523 1523 1523 1523 1523 1522
1491 1492 1493 1494 1494 1495 1496 1497 1497 1498 1499 1500 1501 1502 1504 1505 1506 1507 1508 1510 1511 1512 1513 1514 1515 1517 1517 1517 1518 1518 1518 1518 1518 1519 1519 1519 1519 1518
1486 1487 1488 1488 1489 1489 1490 1491 1493 1494 1495 1496 1497 1497 1498 1499 1500 1502 1503 1504 1505 1506 1507 1509 1510 1511 1512 1513 1513 1513 1513 1513 1514 1514 1514 1513 1513 1513
1482 1481 1482 1483 1484 1485 1486 1486 1487 1489 1490 1491 1492 1492 1493 1494 1495 1497 1498 1499 1499 1501 1502 1503 1505 1506 1507 1507 1508 1508 1508 1508 1509 1509 1509 1508 1507 1508
1476 1476 1477 1478 1479 1480 1481 1482 1482 1484 1485 1486 1487 1487 1488 1489 1490 1491 1492 1493 1494 1495 1496 1498 1499 1500 1500 1500 1501 1503 1503 1503 1503 1503 1503 1503 1502 1502
1470 1471 1472 1473 1474 1475 1476 1477 1478 1479 1480 1480 1481 1482 1483 1483 1484 1485 1486 1487 1488 1489 1490 1491 1492 1493 1494 1495 1495 1496 1498 1498 1498 1497 1497 1497 1497 1497
1465 1465 1466 1468 1469 1470 1471 1471 1472 1473 1474 1475 1475 1476 1477 1478 1478 1479 1480 1481 1482 1483 1483 1484 1486 1489 1490 1491 1490 1490 1492 1493 1493 1492 1492 1492 1491 1491
1459 1460 1461 1462 1463 1464 1465 1465 1466 1467 1468 1469 1469 1470 1471 1472 1472 1473 1474 1475 1476 1477 1478 1479 1481 1482 1483 1483 1483 1484 1485 1486 1486 1487 1487 1487 1486 1484
1454 1455 1455 1456 1457 1458 1459 1459 1460 1460 1461 1462 1463 1464 1465 1465 1466 1467 1468 1469 1470 1471 1472 1473 1475 1476 1476 1477 1477 1478 1478 1479 1479 1479 1480 1480 1481 1480